Midpoint, URN, Start Time, Stop Time, Target_name, Target_lid_reference, sub_solar_latitude, sub_solar_longitude, subspacecraft_latitude, subspacecraft_longitude, target_center_distance, spacecraft_altitude, juno:L_Band_geom:minimum_latitude, juno:L_Band_geom:maximum_latitude, juno:L_Band_geom:minimum_longitude, juno:L_Band_geom:maximum_longitude, juno:L_Band_geom:horizontal_pixel_footprint, juno:L_Band_geom:vertical_pixel_footprint, juno:L_Band_geom:incidence_angle, juno:L_Band_geom:emission_angle, juno:L_Band_geom:phase_angle,juno:M_Band_geom:minimum_latitude, juno:M_Band_geom:maximum_latitude, juno:M_Band_geom:minimum_longitude, juno:M_Band_geom:maximum_longitude, juno:M_Band_geom:horizontal_pixel_footprint, juno:M_Band_geom:vertical_pixel_footprint, juno:M_Band_geom:incidence_angle, juno:M_Band_geom:emission_angle, juno:M_Band_geom:phase_angle, File Size, path
2021-09-02T21:14:13.97Z,urn:nasa:pds:juno_jiram:data_calibrated:jir_img_rdr_2021245t211416_v01,2021-09-02T21:14:13.960Z,2021-09-02T21:14:13.975Z,JUPITER,urn:nasa:pds:context:target:planet.jupiter,0.59123,356.7644,42.7368,116.7623,202363.881,133126.3294,-0.42359,9.125,169.427,180.1426,31950.3191,31950.3191,,,,3.0215,9.2458,174.461,183.953,31925.2711,31925.2711,,,,0.438,/home/atmos7/PDS/JUNO/PDS4/JIRAM/juno_jiram_bundle/data_calibrated/orbit36/JIR_IMG_RDR_2021245T211416_V01.IMG
2021-09-02T21:14:44.75Z,urn:nasa:pds:juno_jiram:data_calibrated:jir_img_rdr_2021245t211447_v01,2021-09-02T21:14:44.743Z,2021-09-02T21:14:44.758Z,JUPITER,urn:nasa:pds:context:target:planet.jupiter,0.59123,356.4542,42.9161,116.3879,201510.6037,132287.5879,-2.2293,9.6288,164.723,176.7779,31749.0211,31749.0211,,,,0.71101,11.2363,168.477,180.482,31724.0141,31724.0141,,,,0.438,/home/atmos7/PDS/JUNO/PDS4/JIRAM/juno_jiram_bundle/data_calibrated/orbit36/JIR_IMG_RDR_2021245T211447_V01.IMG
2021-09-02T21:15:15.52Z,urn:nasa:pds:juno_jiram:data_calibrated:jir_img_rdr_2021245t211517_v01,2021-09-02T21:15:15.522Z,2021-09-02T21:15:15.537Z,JUPITER,urn:nasa:pds:context:target:planet.jupiter,0.59123,356.1441,43.0968,116.0127,200656.6119,131448.2479,-4.6943,9.1269,160.903,173.404,31547.5795,31547.5795,,,,-1.2953,11.6071,163.938,177.357,31522.6159,31522.6159,,,,0.438,/home/atmos7/PDS/JUNO/PDS4/JIRAM/juno_jiram_bundle/data_calibrated/orbit36/JIR_IMG_RDR_2021245T211517_V01.IMG
2021-09-02T21:15:46.31Z,urn:nasa:pds:juno_jiram:data_calibrated:jir_img_rdr_2021245t211548_v01,2021-09-02T21:15:46.302Z,2021-09-02T21:15:46.317Z,JUPITER,urn:nasa:pds:context:target:planet.jupiter,0.59124,355.834,43.2791,115.6365,199801.7687,130608.1758,-6.37,8.0389,157.602,170.2725,31345.9622,31345.9622,,,,-3.9673,11.0989,160.082,173.2,31321.0444,31321.0444,,,,0.438,/home/atmos7/PDS/JUNO/PDS4/JIRAM/juno_jiram_bundle/data_calibrated/orbit36/JIR_IMG_RDR_2021245T211548_V01.IMG
2021-09-02T21:16:17.90Z,urn:nasa:pds:juno_jiram:data_calibrated:jir_img_rdr_2021245t211619_v01,2021-09-02T21:16:17.082Z,2021-09-02T21:16:17.097Z,JUPITER,urn:nasa:pds:context:target:planet.jupiter,0.59124,355.5238,43.4629,115.2593,198946.1041,129767.4021,-8.4152,6.5168,154.737,166.4862,31144.1765,31144.1765,,,,-5.5672,10.0869,156.717,170.8837,31119.3071,31119.3071,,,,0.438,/home/atmos7/PDS/JUNO/PDS4/JIRAM/juno_jiram_bundle/data_calibrated/orbit36/JIR_IMG_RDR_2021245T211619_V01.IMG
2021-09-02T21:16:47.86Z,urn:nasa:pds:juno_jiram:data_calibrated:jir_img_rdr_2021245t211650_v01,2021-09-02T21:16:47.860Z,2021-09-02T21:16:47.875Z,JUPITER,urn:nasa:pds:context:target:planet.jupiter,0.59124,355.2137,43.6482,114.8812,198089.6763,128925.985,-10.0462,4.6415,152.311,162.9706,30942.2364,30942.2364,,,,-7.4354,8.7389,153.765,167.0415,30917.4179,30917.4179,,,,0.438,/home/atmos7/PDS/JUNO/PDS4/JIRAM/juno_jiram_bundle/data_calibrated/orbit36/JIR_IMG_RDR_2021245T211650_V01.IMG
2021-09-02T21:17:18.65Z,urn:nasa:pds:juno_jiram:data_calibrated:jir_img_rdr_2021245t211721_v01,2021-09-02T21:17:18.641Z,2021-09-02T21:17:18.656Z,JUPITER,urn:nasa:pds:context:target:planet.jupiter,0.59124,354.9036,43.8351,114.502,197232.3486,128083.7911,-11.7883,2.2128,150.392,159.291,30740.1099,30740.1099,,,,-9.4364,6.9774,151.124,163.8236,30715.3449,30715.3449,,,,0.438,/home/atmos7/PDS/JUNO/PDS4/JIRAM/juno_jiram_bundle/data_calibrated/orbit36/JIR_IMG_RDR_2021245T211721_V01.IMG
2021-09-02T21:17:49.43Z,urn:nasa:pds:juno_jiram:data_calibrated:jir_img_rdr_2021245t211751_v01,2021-09-02T21:17:49.421Z,2021-09-02T21:17:49.436Z,JUPITER,urn:nasa:pds:context:target:planet.jupiter,0.59124,354.5935,44.0236,114.1218,196374.2354,127240.9337,-13.4071,-0.83024,148.703,155.7266,30537.8241,30537.8241,,,,-11.2503,4.8724,148.861,159.9575,30513.1153,30513.1153,,,,0.438,/home/atmos7/PDS/JUNO/PDS4/JIRAM/juno_jiram_bundle/data_calibrated/orbit36/JIR_IMG_RDR_2021245T211751_V01.IMG
2021-09-02T21:19:20.55Z,urn:nasa:pds:juno_jiram:data_calibrated:jir_img_rdr_2021245t211922_v01,2021-09-02T21:19:20.541Z,2021-09-02T21:19:20.556Z,JUPITER,urn:nasa:pds:context:target:planet.jupiter,0.59125,353.6754,44.591,112.9899,193829.1688,124741.757,0.94634,21.1151,155.892,175.6817,29938.0217,29938.0217,,,,3.8809,22.8387,159.647,179.3838,29913.4953,29913.4953,,,,0.438,/home/atmos7/PDS/JUNO/PDS4/JIRAM/juno_jiram_bundle/data_calibrated/orbit36/JIR_IMG_RDR_2021245T211922_V01.IMG
2021-09-02T21:19:51.38Z,urn:nasa:pds:juno_jiram:data_calibrated:jir_img_rdr_2021245t211953_v01,2021-09-02T21:19:51.373Z,2021-09-02T21:19:51.388Z,JUPITER,urn:nasa:pds:context:target:planet.jupiter,0.59125,353.3647,44.7864,112.6047,192966.4087,123894.7735,-1.8332,19.5996,151.378,171.4647,29734.7456,29734.7456,,,,1.0644,21.8078,154.532,175.1454,29710.2866,29710.2866,,,,0.438,/home/atmos7/PDS/JUNO/PDS4/JIRAM/juno_jiram_bundle/data_calibrated/orbit36/JIR_IMG_RDR_2021245T211953_V01.IMG
2021-09-02T21:20:22.21Z,urn:nasa:pds:juno_jiram:data_calibrated:jir_img_rdr_2021245t212024_v01,2021-09-02T21:20:22.201Z,2021-09-02T21:20:22.216Z,JUPITER,urn:nasa:pds:context:target:planet.jupiter,0.59125,353.0541,44.9833,112.2183,192102.9608,123047.2275,-4.5006,17.7156,147.489,166.7397,29531.3346,29531.3346,169.2548,84.5061,88.1914,-1.7089,20.2987,150.19,170.4378,29506.9458,29506.9458,169.7545,82.005,88.1123,0.438,/home/atmos7/PDS/JUNO/PDS4/JIRAM/juno_jiram_bundle/data_calibrated/orbit36/JIR_IMG_RDR_2021245T212024_V01.IMG
2021-09-02T21:20:53.40Z,urn:nasa:pds:juno_jiram:data_calibrated:jir_img_rdr_2021245t212055_v01,2021-09-02T21:20:53.031Z,2021-09-02T21:20:53.046Z,JUPITER,urn:nasa:pds:context:target:planet.jupiter,0.59125,352.7435,45.1821,111.8307,191238.6611,122198.959,-6.7278,15.4263,144.001,162.2713,29327.7502,29327.7502,165.7201,86.504,88.2865,-4.4911,18.3718,146.323,166.1579,29303.4345,29303.4345,165.7995,80.0291,88.2057,0.438,/home/atmos7/PDS/JUNO/PDS4/JIRAM/juno_jiram_bundle/data_calibrated/orbit36/JIR_IMG_RDR_2021245T212055_V01.IMG
2021-09-02T21:21:23.86Z,urn:nasa:pds:juno_jiram:data_calibrated:jir_img_rdr_2021245t212126_v01,2021-09-02T21:21:23.859Z,2021-09-02T21:21:23.874Z,JUPITER,urn:nasa:pds:context:target:planet.jupiter,0.59125,352.4329,45.3825,111.4419,190373.6257,121350.083,-9.3244,12.7856,140.914,157.6871,29124.0199,29124.0199,,,,-6.6055,16.1283,142.9,161.6523,29099.7804,29099.7804,163.0086,81.0824,88.3001,0.438,/home/atmos7/PDS/JUNO/PDS4/JIRAM/juno_jiram_bundle/data_calibrated/orbit36/JIR_IMG_RDR_2021245T212126_V01.IMG
2021-09-02T21:21:54.70Z,urn:nasa:pds:juno_jiram:data_calibrated:jir_img_rdr_2021245t212157_v01,2021-09-02T21:21:54.690Z,2021-09-02T21:21:54.705Z,JUPITER,urn:nasa:pds:context:target:planet.jupiter,0.59126,352.1222,45.5848,111.0517,189507.7191,120500.467,-11.4028,9.599,138.158,152.7038,28920.1121,28920.1121,,,,-8.8656,13.4552,139.793,156.6145,28895.9518,28895.9518,160.8017,88.1782,88.3976,0.438,/home/atmos7/PDS/JUNO/PDS4/JIRAM/juno_jiram_bundle/data_calibrated/orbit36/JIR_IMG_RDR_2021245T212157_V01.IMG
2021-09-02T21:23:25.82Z,urn:nasa:pds:juno_jiram:data_calibrated:jir_img_rdr_2021245t212328_v01,2021-09-02T21:23:25.814Z,2021-09-02T21:23:25.829Z,JUPITER,urn:nasa:pds:context:target:planet.jupiter,0.59126,351.2041,46.1932,109.8907,186943.8892,117985.5532,2.3132,27.3396,147.886,172.0666,28316.5328,28316.5328,155.9846,68.2707,88.0664,5.0099,29.202,151.318,175.7282,28292.6248,28292.6248,156.353,70.1871,87.9901,0.438,/home/atmos7/PDS/JUNO/PDS4/JIRAM/juno_jiram_bundle/data_calibrated/orbit36/JIR_IMG_RDR_2021245T212328_V01.IMG
2021-09-02T21:23:56.65Z,urn:nasa:pds:juno_jiram:data_calibrated:jir_img_rdr_2021245t212359_v01,2021-09-02T21:23:56.648Z,2021-09-02T21:23:56.663Z,JUPITER,urn:nasa:pds:context:target:planet.jupiter,0.59126,350.8934,46.4027,109.4952,186074.8296,117133.3078,-0.40226,25.7207,143.693,167.5515,28111.9939,28111.9939,154.1369,66.0126,88.1603,2.222,27.874,146.663,171.2592,28088.1776,28088.1776,154.3384,66.5366,88.0817,0.438,/home/atmos7/PDS/JUNO/PDS4/JIRAM/juno_jiram_bundle/data_calibrated/orbit36/JIR_IMG_RDR_2021245T212359_V01.IMG
2021-09-02T21:24:27.48Z,urn:nasa:pds:juno_jiram:data_calibrated:jir_img_rdr_2021245t212429_v01,2021-09-02T21:24:27.477Z,2021-09-02T21:24:27.492Z,JUPITER,urn:nasa:pds:context:target:planet.jupiter,0.59126,350.5828,46.6141,109.0982,185205.1485,116280.5719,-2.7667,23.9096,140.014,163.2528,27907.3373,27907.3373,152.5203,65.1115,88.2541,-0.33103,26.3038,142.628,166.6868,27883.616,27883.616,152.6324,64.5029,88.1735,0.438,/home/atmos7/PDS/JUNO/PDS4/JIRAM/juno_jiram_bundle/data_calibrated/orbit36/JIR_IMG_RDR_2021245T212429_V01.IMG
2021-09-02T21:24:58.31Z,urn:nasa:pds:juno_jiram:data_calibrated:jir_img_rdr_2021245t212500_v01,2021-09-02T21:24:58.307Z,2021-09-02T21:24:58.322Z,JUPITER,urn:nasa:pds:context:target:planet.jupiter,0.59127,350.2722,46.8275,108.6996,184334.6541,115427.1585,-4.9176,21.8305,136.64,158.747,27702.518,27702.518,151.0526,65.4237,88.3514,-2.6014,24.4615,138.96,162.4051,27678.8951,27678.8951,151.1096,63.711,88.2687,0.438,/home/atmos7/PDS/JUNO/PDS4/JIRAM/juno_jiram_bundle/data_calibrated/orbit36/JIR_IMG_RDR_2021245T212500_V01.IMG
2021-09-02T21:25:29.14Z,urn:nasa:pds:juno_jiram:data_calibrated:jir_img_rdr_2021245t212531_v01,2021-09-02T21:25:29.138Z,2021-09-02T21:25:29.153Z,JUPITER,urn:nasa:pds:context:target:planet.jupiter,0.59127,349.9615,47.0428,108.2996,183463.4085,114573.129,-7.0932,19.5029,133.55,154.2501,27497.551,27497.551,149.6939,66.9618,88.4507,-4.9548,22.3907,135.621,158.1918,27474.0297,27474.0297,149.7166,64.0713,88.3661,0.438,/home/atmos7/PDS/JUNO/PDS4/JIRAM/juno_jiram_bundle/data_calibrated/orbit36/JIR_IMG_RDR_2021245T212531_V01.IMG
2021-09-02T21:25:59.97Z,urn:nasa:pds:juno_jiram:data_calibrated:jir_img_rdr_2021245t212602_v01,2021-09-02T21:25:59.967Z,2021-09-02T21:25:59.982Z,JUPITER,urn:nasa:pds:context:target:planet.jupiter,0.59127,349.6509,47.26,107.8979,182591.4754,113718.5467,-8.7786,16.9326,130.727,149.3937,27292.4512,27292.4512,148.4144,69.8371,88.551,-6.9289,20.121,132.581,153.6837,27269.035,27269.035,148.4176,65.5505,88.4647,0.438,/home/atmos7/PDS/JUNO/PDS4/JIRAM/juno_jiram_bundle/data_calibrated/orbit36/JIR_IMG_RDR_2021245T212602_V01.IMG
2021-09-02T21:27:31.10Z,urn:nasa:pds:juno_jiram:data_calibrated:jir_img_rdr_2021245t212733_v01,2021-09-02T21:27:31.091Z,2021-09-02T21:27:31.106Z,JUPITER,urn:nasa:pds:context:target:planet.jupiter,0.59127,348.7328,47.9141,106.7011,180009.9382,111189.0957,13.5037,32.7623,140.7,161.1875,26685.383,26685.383,145.1696,57.4208,88.1263,14.6202,34.6375,143.912,166.8677,26662.2979,26662.2979,145.3265,58.8371,88.0485,0.438,/home/atmos7/PDS/JUNO/PDS4/JIRAM/juno_jiram_bundle/data_calibrated/orbit36/JIR_IMG_RDR_2021245T212733_V01.IMG
2021-09-02T21:28:01.93Z,urn:nasa:pds:juno_jiram:data_calibrated:jir_img_rdr_2021245t212804_v01,2021-09-02T21:28:01.926Z,2021-09-02T21:28:01.941Z,JUPITER,urn:nasa:pds:context:target:planet.jupiter,0.59128,348.4221,48.1395,106.2926,179134.9579,110332.0133,12.8742,31.1583,136.732,154.9413,26479.6832,26479.6832,143.9264,55.708,88.2224,15.1276,33.2311,139.552,158.8522,26456.7173,26456.7173,144.0242,56.1972,88.1424,0.438,/home/atmos7/PDS/JUNO/PDS4/JIRAM/juno_jiram_bundle/data_calibrated/orbit36/JIR_IMG_RDR_2021245T212804_V01.IMG
2021-09-02T21:28:32.76Z,urn:nasa:pds:juno_jiram:data_calibrated:jir_img_rdr_2021245t212835_v01,2021-09-02T21:28:32.759Z,2021-09-02T21:28:32.774Z,JUPITER,urn:nasa:pds:context:target:planet.jupiter,0.59128,348.1114,48.367,105.8824,178259.3251,109474.4161,11.3566,29.3994,133.165,150.0114,26273.8599,26273.8599,142.7679,54.9718,88.3199,14.2932,31.6437,135.674,153.1123,26251.0168,26251.0168,142.8264,54.5987,88.2377,0.438,/home/atmos7/PDS/JUNO/PDS4/JIRAM/juno_jiram_bundle/data_calibrated/orbit36/JIR_IMG_RDR_2021245T212835_V01.IMG
2021-09-02T21:29:03.59Z,urn:nasa:pds:juno_jiram:data_calibrated:jir_img_rdr_2021245t212905_v01,2021-09-02T21:29:03.588Z,2021-09-02T21:29:03.603Z,JUPITER,urn:nasa:pds:context:target:planet.jupiter,0.59128,347.8008,48.5967,105.4703,177383.1059,108616.3694,9.1769,27.5376,129.95,145.9058,26067.9286,26067.9286,141.6724,55.1133,88.4178,12.795,29.9452,132.209,148.4547,26045.212,26045.212,141.7034,53.9142,88.3337,0.438,/home/atmos7/PDS/JUNO/PDS4/JIRAM/juno_jiram_bundle/data_calibrated/orbit36/JIR_IMG_RDR_2021245T212905_V01.IMG
2021-09-02T21:29:34.42Z,urn:nasa:pds:juno_jiram:data_calibrated:jir_img_rdr_2021245t212936_v01,2021-09-02T21:29:34.421Z,2021-09-02T21:29:34.436Z,JUPITER,urn:nasa:pds:context:target:planet.jupiter,0.59128,347.4901,48.8285,105.0561,176506.0807,107757.6587,6.0115,25.448,126.919,142.3118,25861.8381,25861.8381,140.6251,56.1802,88.5199,10.5749,28.0349,128.967,144.3883,25839.2517,25839.2517,140.6357,54.1248,88.434,0.438,/home/atmos7/PDS/JUNO/PDS4/JIRAM/juno_jiram_bundle/data_calibrated/orbit36/JIR_IMG_RDR_2021245T212936_V01.IMG
2021-09-02T21:30:05.26Z,urn:nasa:pds:juno_jiram:data_calibrated:jir_img_rdr_2021245t213007_v01,2021-09-02T21:30:05.250Z,2021-09-02T21:30:05.265Z,JUPITER,urn:nasa:pds:context:target:planet.jupiter,0.59128,347.1795,49.0626,104.6401,175628.4867,106898.5169,1.4581,23.2407,124.139,139.2739,25655.6441,25655.6441,139.6173,58.0885,88.6221,7.7095,26.0283,126.012,140.8928,25633.1917,25633.1917,139.6133,55.1577,88.5344,0.438,/home/atmos7/PDS/JUNO/PDS4/JIRAM/juno_jiram_bundle/data_calibrated/orbit36/JIR_IMG_RDR_2021245T213007_V01.IMG
2021-09-02T21:31:36.38Z,urn:nasa:pds:juno_jiram:data_calibrated:jir_img_rdr_2021245t213138_v01,2021-09-02T21:31:36.378Z,2021-09-02T21:31:36.393Z,JUPITER,urn:nasa:pds:context:target:planet.jupiter,0.59129,346.2613,49.7677,103.3979,173030.4901,104355.8854,24.2023,37.754,133.836,149.4386,25045.4125,25045.4125,136.9408,49.1639,88.1927,25.8782,39.6044,136.87,153.382,25023.3787,25023.3787,137.0417,50.4402,88.1133,0.438,/home/atmos7/PDS/JUNO/PDS4/JIRAM/juno_jiram_bundle/data_calibrated/orbit36/JIR_IMG_RDR_2021245T213138_V01.IMG
2021-09-02T21:32:07.22Z,urn:nasa:pds:juno_jiram:data_calibrated:jir_img_rdr_2021245t213209_v01,2021-09-02T21:32:07.215Z,2021-09-02T21:32:07.230Z,JUPITER,urn:nasa:pds:context:target:planet.jupiter,0.59129,345.9506,50.0109,102.9731,172150.0613,103494.4706,23.0272,36.1881,130.03,144.5849,24838.6729,24838.6729,135.9268,47.6351,88.2918,25.0651,38.18,132.712,147.9149,24816.7886,24816.7886,135.9962,48.138,88.2102,0.438,/home/atmos7/PDS/JUNO/PDS4/JIRAM/juno_jiram_bundle/data_calibrated/orbit36/JIR_IMG_RDR_2021245T213209_V01.IMG
2021-09-02T21:32:38.50Z,urn:nasa:pds:juno_jiram:data_calibrated:jir_img_rdr_2021245t213240_v01,2021-09-02T21:32:38.048Z,2021-09-02T21:32:38.063Z,JUPITER,urn:nasa:pds:context:target:planet.jupiter,0.59129,345.64,50.2565,102.5461,171269.1139,102632.6758,21.5535,34.5475,126.618,140.3858,24631.8422,24631.8422,134.9587,46.9373,88.3914,23.9029,36.6625,129.02,143.2664,24610.1113,24610.1113,135.0054,46.6983,88.3077,0.438,/home/atmos7/PDS/JUNO/PDS4/JIRAM/juno_jiram_bundle/data_calibrated/orbit36/JIR_IMG_RDR_2021245T213240_V01.IMG
2021-09-02T21:33:08.89Z,urn:nasa:pds:juno_jiram:data_calibrated:jir_img_rdr_2021245t213311_v01,2021-09-02T21:33:08.880Z,2021-09-02T21:33:08.895Z,JUPITER,urn:nasa:pds:context:target:planet.jupiter,0.59129,345.3293,50.5045,102.1166,170387.5739,101770.4291,19.7772,32.8071,123.485,136.6401,24424.903,24424.903,134.0265,47.0205,88.4923,22.4383,35.0421,125.659,139.1647,24403.3295,24403.3295,134.0562,46.0507,88.4067,0.438,/home/atmos7/PDS/JUNO/PDS4/JIRAM/juno_jiram_bundle/data_calibrated/orbit36/JIR_IMG_RDR_2021245T213311_V01.IMG
2021-09-02T21:33:39.72Z,urn:nasa:pds:juno_jiram:data_calibrated:jir_img_rdr_2021245t213342_v01,2021-09-02T21:33:39.713Z,2021-09-02T21:33:39.728Z,JUPITER,urn:nasa:pds:context:target:planet.jupiter,0.59129,345.0186,50.7549,101.6846,169505.3961,100907.6865,17.6526,30.9397,120.558,133.2334,24217.8448,24217.8448,133.1216,47.8749,88.5962,20.6671,33.3031,122.543,135.4609,24196.4327,24196.4327,133.1379,46.1762,88.5089,0.438,/home/atmos7/PDS/JUNO/PDS4/JIRAM/juno_jiram_bundle/data_calibrated/orbit36/JIR_IMG_RDR_2021245T213342_V01.IMG
2021-09-02T21:34:10.55Z,urn:nasa:pds:juno_jiram:data_calibrated:jir_img_rdr_2021245t213412_v01,2021-09-02T21:34:10.546Z,2021-09-02T21:34:10.561Z,JUPITER,urn:nasa:pds:context:target:planet.jupiter,0.5913,344.708,51.0078,101.25,168622.6208,100044.4875,15.1232,28.9419,117.811,130.1239,24010.677,24010.677,132.2408,49.4878,88.7022,18.5801,31.4509,119.639,132.0939,23989.4305,23989.4305,132.2464,47.0612,88.6132,0.438,/home/atmos7/PDS/JUNO/PDS4/JIRAM/juno_jiram_bundle/data_calibrated/orbit36/JIR_IMG_RDR_2021245T213412_V01.IMG
2021-09-02T21:35:41.68Z,urn:nasa:pds:juno_jiram:data_calibrated:jir_img_rdr_2021245t213544_v01,2021-09-02T21:35:41.674Z,2021-09-02T21:35:41.689Z,JUPITER,urn:nasa:pds:context:target:planet.jupiter,0.5913,343.7898,51.7702,99.9495,166010.1857,97490.7337,31.7255,42.5312,127.109,140.7598,23397.7761,23397.7761,129.9292,42.133,88.2656,33.3996,44.3394,129.99,144.2818,23377.0432,23377.0432,130.0101,43.3759,88.1845,0.438,/home/atmos7/PDS/JUNO/PDS4/JIRAM/juno_jiram_bundle/data_calibrated/orbit36/JIR_IMG_RDR_2021245T213544_V01.IMG
2021-09-02T21:36:12.52Z,urn:nasa:pds:juno_jiram:data_calibrated:jir_img_rdr_2021245t213614_v01,2021-09-02T21:36:12.514Z,2021-09-02T21:36:12.529Z,JUPITER,urn:nasa:pds:context:target:planet.jupiter,0.5913,343.4791,52.0333,99.5036,165124.9795,96625.6641,30.498,41.0119,123.419,136.329,23190.1594,23190.1594,129.0348,40.6709,88.3683,32.3925,42.9238,125.972,139.3954,23169.6086,23169.6086,129.0963,41.209,88.285,0.438,/home/atmos7/PDS/JUNO/PDS4/JIRAM/juno_jiram_bundle/data_calibrated/orbit36/JIR_IMG_RDR_2021245T213614_V01.IMG
2021-09-02T21:36:43.35Z,urn:nasa:pds:juno_jiram:data_calibrated:jir_img_rdr_2021245t213645_v01,2021-09-02T21:36:43.348Z,2021-09-02T21:36:43.363Z,JUPITER,urn:nasa:pds:context:target:planet.jupiter,0.5913,343.1684,52.2991,99.0548,164239.4175,95760.3741,29.1345,39.4771,120.13,132.4458,22982.4898,22982.4898,128.1705,39.9837,88.4701,31.2229,41.4787,122.424,135.1585,22962.1253,22962.1253,128.2176,39.834,88.3848,0.438,/home/atmos7/PDS/JUNO/PDS4/JIRAM/juno_jiram_bundle/data_calibrated/orbit36/JIR_IMG_RDR_2021245T213645_V01.IMG
2021-09-02T21:37:14.18Z,urn:nasa:pds:juno_jiram:data_calibrated:jir_img_rdr_2021245t213716_v01,2021-09-02T21:37:14.180Z,2021-09-02T21:37:14.195Z,JUPITER,urn:nasa:pds:context:target:planet.jupiter,0.59131,342.8577,52.5676,98.6027,163353.4006,94894.7668,27.611,37.8896,117.112,128.9354,22774.744,22774.744,127.328,40.0143,88.5731,29.8904,39.9785,119.193,131.36,22754.5701,22754.5701,127.3639,39.1858,88.486,0.438,/home/atmos7/PDS/JUNO/PDS4/JIRAM/juno_jiram_bundle/data_calibrated/orbit36/JIR_IMG_RDR_2021245T213716_V01.IMG
2021-09-02T21:37:45.20Z,urn:nasa:pds:juno_jiram:data_calibrated:jir_img_rdr_2021245t213747_v01,2021-09-02T21:37:45.015Z,2021-09-02T21:37:45.030Z,JUPITER,urn:nasa:pds:context:target:planet.jupiter,0.59131,342.5471,52.8389,98.1474,162466.8014,94028.7172,25.8477,36.1806,114.258,125.6662,22566.8921,22566.8921,126.5036,40.7782,88.6796,28.3379,38.3642,116.162,127.8452,22546.913,22546.913,126.5304,39.271,88.5908,0.438,/home/atmos7/PDS/JUNO/PDS4/JIRAM/juno_jiram_bundle/data_calibrated/orbit36/JIR_IMG_RDR_2021245T213747_V01.IMG
2021-09-02T21:38:15.85Z,urn:nasa:pds:juno_jiram:data_calibrated:jir_img_rdr_2021245t213818_v01,2021-09-02T21:38:15.847Z,2021-09-02T21:38:15.862Z,JUPITER,urn:nasa:pds:context:target:planet.jupiter,0.59131,342.2364,53.1129,97.6886,161579.781,93162.3823,23.8996,34.41,111.599,122.665,22358.9717,22358.9717,125.6951,42.2058,88.7868,26.6302,36.6988,113.355,124.6372,22339.1917,22339.1917,125.7145,40.0498,88.6964,0.438,/home/atmos7/PDS/JUNO/PDS4/JIRAM/juno_jiram_bundle/data_calibrated/orbit36/JIR_IMG_RDR_2021245T213818_V01.IMG
2021-09-02T21:39:46.99Z,urn:nasa:pds:juno_jiram:data_calibrated:jir_img_rdr_2021245t213949_v01,2021-09-02T21:39:46.980Z,2021-09-02T21:39:46.995Z,JUPITER,urn:nasa:pds:context:target:planet.jupiter,0.59132,341.3182,53.9396,96.3111,158955.3893,90599.9223,38.2071,47.1826,120.324,132.941,21743.9814,21743.9814,123.6471,35.8366,88.3449,39.8354,48.9413,123.064,136.2158,21724.815,21724.815,123.7206,37.097,88.262,0.438,/home/atmos7/PDS/JUNO/PDS4/JIRAM/juno_jiram_bundle/data_calibrated/orbit36/JIR_IMG_RDR_2021245T213949_V01.IMG
2021-09-02T21:40:17.83Z,urn:nasa:pds:juno_jiram:data_calibrated:jir_img_rdr_2021245t214020_v01,2021-09-02T21:40:17.821Z,2021-09-02T21:40:17.836Z,JUPITER,urn:nasa:pds:context:target:planet.jupiter,0.59132,341.0074,54.2251,95.8373,158066.4225,89732.1782,37.0273,45.743,116.761,128.7793,21535.7228,21535.7228,122.8258,34.3905,88.4502,38.8046,47.5764,119.19,131.6658,21516.7726,21516.7726,122.8866,34.9835,88.3652,0.438,/home/atmos7/PDS/JUNO/PDS4/JIRAM/juno_jiram_bundle/data_calibrated/orbit36/JIR_IMG_RDR_2021245T214020_V01.IMG
2021-09-02T21:40:48.66Z,urn:nasa:pds:juno_jiram:data_calibrated:jir_img_rdr_2021245t214051_v01,2021-09-02T21:40:48.657Z,2021-09-02T21:40:48.672Z,JUPITER,urn:nasa:pds:context:target:planet.jupiter,0.59132,340.6967,54.5136,95.3593,157177.214,88864.3201,35.766,44.3,113.563,125.0781,21327.4368,21327.4368,122.0245,33.695,88.5549,37.6766,46.1988,115.743,127.6529,21308.7071,21308.7071,122.0757,33.6155,88.468,0.438,/home/atmos7/PDS/JUNO/PDS4/JIRAM/juno_jiram_bundle/data_calibrated/orbit36/JIR_IMG_RDR_2021245T214051_V01.IMG
2021-09-02T21:41:19.49Z,urn:nasa:pds:juno_jiram:data_calibrated:jir_img_rdr_2021245t214121_v01,2021-09-02T21:41:19.491Z,2021-09-02T21:41:19.506Z,JUPITER,urn:nasa:pds:context:target:planet.jupiter,0.59132,340.386,54.8051,94.8771,156287.6998,87996.2842,34.4051,42.8271,110.623,121.7083,21119.1082,21119.1082,121.2386,33.7111,88.6606,36.4464,44.7898,112.601,124.0251,21100.6032,21100.6032,121.2822,32.9617,88.572,0.438,/home/atmos7/PDS/JUNO/PDS4/JIRAM/juno_jiram_bundle/data_calibrated/orbit36/JIR_IMG_RDR_2021245T214121_V01.IMG
2021-09-02T21:41:50.33Z,urn:nasa:pds:juno_jiram:data_calibrated:jir_img_rdr_2021245t214152_v01,2021-09-02T21:41:50.328Z,2021-09-02T21:41:50.343Z,JUPITER,urn:nasa:pds:context:target:planet.jupiter,0.59132,340.0753,55.0997,94.3903,155397.7577,87127.9498,32.8781,41.2608,107.843,118.55,20910.708,20910.708,120.4635,34.447,88.7703,35.0608,43.2933,109.649,120.6453,20892.432,20892.432,120.5009,33.0341,88.68,0.438,/home/atmos7/PDS/JUNO/PDS4/JIRAM/juno_jiram_bundle/data_calibrated/orbit36/JIR_IMG_RDR_2021245T214152_V01.IMG
2021-09-02T21:42:21.17Z,urn:nasa:pds:juno_jiram:data_calibrated:jir_img_rdr_2021245t214223_v01,2021-09-02T21:42:21.162Z,2021-09-02T21:42:21.177Z,JUPITER,urn:nasa:pds:context:target:planet.jupiter,0.59132,339.7647,55.3975,93.8989,154507.5831,86259.5063,31.2552,39.6703,105.258,115.6449,20702.2815,20702.2815,119.6996,35.8115,88.88,33.593,41.7799,106.924,117.5547,20684.2389,20684.2389,119.732,33.7844,88.7883,0.438,/home/atmos7/PDS/JUNO/PDS4/JIRAM/juno_jiram_bundle/data_calibrated/orbit36/JIR_IMG_RDR_2021245T214223_V01.IMG